Location: Unspecified
(50.7693°N, 0.0000°E)
Time: 11:46:06
(UTC+00:00)

Transit 2A - Pass Details

Date: 25 June 2019
Orbit: 595 x 964 km, 66.7° (Epoch: 21 July)

Event Time Altitude Azimuth Distance (km) Brightness Sun altitude
Rises 00:25:09 0° 222° (SW) 3,635 - -15.7°
Reaches altitude 10° 00:27:44 10° 224° (SW) 2,698 - -15.6°
Exits shadow 00:28:34 14° 225° (SW) 2,398 8.1 -15.6°
Maximum altitude 00:34:06 74° 310° (NW) 992 6.6 -15.5°
Drops below altitude 10° 00:40:17 10° 36° (NE) 2,615 9.8 -15.4°
Sets 00:42:46 0° 38° (NE) 3,517 10.6 -15.3°
